Погода в Саратовке

Россия / Алтайский край     51°22′54″N   81°38′37″E
темп.,
°C
ветер,
м/с
пор.,
м/с
влажн.,
%
обл.,
%
осадки,
мм/ч
давл.,
гПа
погр.,
м
3 августа, вт
вт301:00+22зюз354634 0.1 100687
04:00+20юз3456100 0.0 100660
07:00+19зюз2366100 0.0 100877
10:00+26ссз23428 0.0 1008725
13:00+31ссз262690 0.0 10073219
16:00+31юз3728100 0.1 10062336
19:00+28с7935100 0.2 10071083
22:00+20с35695 0.0 100892
4 августа, ср
ср401:00+17св118519 0.0 100911
04:00+17зсз2282100 0.0 100812
07:00+18зсз006789 0.0 100918
10:00+21ссз234991 0.0 1009443
13:00+26сз243488 0.0 10082555
16:00+24сз3439100 0.2 1008855
19:00+25с443697 0.2 10071025
22:00+18в45565 0.0 100771
5 августа, чт
чт501:00+16ююв227196 0.3 100716
04:00+16ююз117161 0.1 100611
07:00+14ююз239028 3.0 100775
10:00+19з226967 0.6 1007588
13:00+22сз335726 1.4 10061352
16:00+23сз565267 2.8 10061759
19:00+22зсз4847100 2.9 1006442
22:00+19зсз345423 0.0 100882
6 августа, пт
пт601:00+18з2263100 0.0 100852
04:00+17з247099 0.0 100797
07:00+17з247897 0.3 1008189
10:00+20зсз45664 0.8 1009716
13:00+23сз455166 2.2 10091601
16:00+22зсз564899 0.1 1008733
19:00+25сз243890 0.1 10081838
22:00+20юв2254100 0.0 100929
7 августа, сб
сб701:00+19ю366181 0.0 1008106
04:00+17ю356498 0.0 100799
07:00+16ююз34665 0.0 100869
10:00+24юз33406 0.0 1008661
13:00+26зсз233395 0.0 10072373
16:00+26зсз243594 0.0 1007241
19:00+28ю232971 0.0 10061536
22:00+21ююв344888 0.0 100649